R/V Atlantis Calliope CSV data file  (Time stamps are GMT)
Date, Time_GMT, Dec_Lat, Dec_Lon, Depth12, Depth35, GPS_COG, GPS_SOG, Gyro, Air_Temp, IMET_BPR, IMET_SWR, HRH, PhinsHd, SBE45C, SBE45S, SBE45T, Salinity, SSTMP, SSV, SSCND, SST_FSI, SST_SBE48, Wnd_Dir, Wnd_Spd, HdChkSum=1B
2009/03/13, 00:00:03, 2.713133, -97.177083, , , 244.0, 13.90, 236.4, 25.775, 1006.69, 120.6, 86.194, 235.0, , , , 33.7057, 26.5775, 1536.7291, 52.9160, 25.9483, 26.5775, 65.0, 2.7184, 1B
2009/03/13, 00:01:01, 2.711283, -97.180383, , , 244.0, 13.40, 236.3, 25.798, 1006.75, 113.5, 86.087, 236.1, , , , 33.7122, 26.5826, 1536.7478, 52.9303, 25.9548, 26.5826, 65.0, 2.6212, 1B
2009/03/13, 00:02:02, 2.709483, -97.183700, , , 243.0, 13.70, 236.6, 25.767, 1006.48, 110.7, 85.881, 236.0, , , , 33.6847, 26.5872, 1536.7292, 52.8966, 25.9264, 26.5872, 60.5, 2.9811, 1B
2009/03/13, 00:03:01, 2.707700, -97.187017, , , 244.0, 13.60, 238.0, 25.767, 1006.80, 106.4, 85.881, 238.1, , , , 33.6800, 26.5814, 1536.7119, 52.8810, 25.9072, 26.5814, 64.6, 2.7253, 1B
2009/03/13, 00:04:02, 2.705900, -97.190467, , , 244.0, 13.50, 236.9, 25.752, 1007.09, 102.9, 85.766, 236.1, , , , 33.6752, 26.5671, 1536.6726, 52.8629, 25.8966, 26.5671, 65.9, 2.5431, 1B
2009/03/13, 00:05:01, 2.704117, -97.193783, , , 239.0, 13.70, 236.2, 25.759, 1006.73, 98.9, 85.789, 235.9, , , , 33.6933, 26.5453, 1536.6415, 52.8659, 25.8928, 26.5453, 55.1, 2.8397, 1B
2009/03/13, 00:06:02, 2.702367, -97.197000, , , 239.0, 13.70, 236.9, 25.775, 1006.53, 92.1, 85.781, 235.7, , , , 33.7069, 26.5200, 1536.5974, 52.8592, 25.8817, 26.5200, 53.0, 2.7894, 1B
2009/03/13, 00:07:02, 2.700567, -97.200350, , , 244.0, 13.80, 236.6, 25.759, 1006.72, 88.1, 85.666, 236.8, , , , 33.7306, 26.4959, 1536.5669, 52.8677, 25.8826, 26.4959, 68.7, 2.5268, 1B
2009/03/13, 00:08:01, 2.698650, -97.203750, , , 240.0, 13.60, 236.8, 25.752, 1006.87, 80.4, 85.597, 234.8, , , , 33.7380, 26.4771, 1536.5358, 52.8609, 25.8684, 26.4771, 59.6, 2.4146, 1B
2009/03/13, 00:09:02, 2.696900, -97.207000, , , 242.0, 13.80, 236.3, 25.752, 1006.84, 76.9, 85.789, 236.6, , , , 33.7982, 26.4669, 1536.5717, 52.9324, 25.9682, 26.4669, 70.4, 2.6026, 1B
2009/03/13, 00:10:01, 2.695017, -97.210483, , , 242.0, 13.80, 237.7, 25.752, 1006.67, 75.7, 85.605, 237.1, , , , 33.8317, 26.4622, 1536.5983, 53.0080, 26.0237, 26.4622, 79.7, 2.5122, 1B
2009/03/13, 00:11:01, 2.693200, -97.213817, , , 241.0, 13.80, 235.4, 25.752, 1006.54, 71.1, 85.720, 235.2, , , , 33.8321, 26.4619, 1536.5958, 52.9743, 25.9871, 26.4619, 75.6, 2.6312, 1B
2009/03/13, 00:12:02, 2.691433, -97.217050, , , 242.0, 13.60, 237.0, 25.736, 1006.60, 67.9, 85.636, 236.6, , , , 33.9258, 26.4697, 1536.7141, 53.1129, 26.1175, 26.4697, 79.6, 2.4807, 1B
2009/03/13, 00:13:02, 2.689633, -97.220383, , , 239.0, 13.50, 235.7, 25.744, 1006.97, 62.0, 85.712, 236.1, , , , 33.9286, 26.4858, 1536.7544, 53.1334, 26.1198, 26.4858, 73.9, 2.4032, 1B
2009/03/13, 00:14:02, 2.687750, -97.223833, , , 241.0, 14.00, 236.0, 25.729, 1006.56, 57.9, 85.681, 235.7, , , , 33.9197, 26.5154, 1536.8134, 53.1512, 26.1444, 26.5154, 78.5, 2.8092, 1B
2009/03/13, 00:15:02, 2.686000, -97.227050, , , 243.0, 14.30, 236.2, 25.729, 1006.78, 55.5, 85.674, 235.3, , , , 33.9105, 26.5515, 1536.8871, 53.1754, 26.1518, 26.5515, 79.6, 3.3389, 1B
2009/03/13, 00:16:02, 2.684100, -97.230383, , , 238.0, 13.70, 235.7, 25.729, 1006.91, 53.0, 85.873, 236.0, , , , 33.8606, 26.5854, 1536.9123, 53.1404, 26.1453, 26.5854, 71.4, 2.8167, 1B
2009/03/13, 00:17:01, 2.682183, -97.233733, , , 236.0, 13.80, 236.7, 25.698, 1006.78, 51.8, 85.475, 236.5, , , , 33.9517, 26.6232, 1537.0965, 53.3064, 26.3078, 26.6232, 70.0, 2.7222, 1B
2009/03/13, 00:18:01, 2.680300, -97.237100, , , 239.0, 14.00, 238.3, 25.713, 1006.78, 48.4, 85.521, 238.2, , , , 33.9453, 26.6609, 1537.1678, 53.3361, 26.3425, 26.6609, 71.0, 2.8876, 1B
2009/03/13, 00:19:01, 2.678517, -97.240533, , , 241.0, 14.20, 237.3, 25.713, 1006.72, 46.7, 85.536, 237.0, , , , 33.7963, 26.6969, 1537.0931, 53.1610, 26.1905, 26.6969, 74.7, 2.5551, 1B
2009/03/13, 00:20:02, 2.676633, -97.244050, , , 241.0, 13.40, 235.7, 25.705, 1006.83, 41.4, 85.674, 235.6, , , , 33.6446, 26.7029, 1536.9534, 52.9583, 26.0047, 26.7029, 77.7, 2.1725, 1B
2009/03/13, 00:21:01, 2.674833, -97.247300, , , 243.0, 13.90, 237.1, 25.705, 1007.08, 39.7, 85.674, 236.2, , , , 33.5601, 26.6834, 1536.8278, 52.8242, 25.8597, 26.6834, 74.6, 2.7621, 1B
2009/03/13, 00:22:01, 2.672933, -97.250767, , , 239.0, 13.60, 236.1, 25.721, 1006.88, 35.2, 85.750, 235.3, , , , 33.5856, 26.6580, 1536.7985, 52.8350, 25.8146, 26.6580, 74.9, 2.9341, 1B
2009/03/13, 00:23:01, 2.671200, -97.254067, , , 240.0, 13.80, 236.2, 25.713, 1006.88, 33.9, 85.873, 236.2, , , , 33.5847, 26.6235, 1536.7218, 52.8004, 25.8275, 26.6235, 82.5, 3.1821, 1B
2009/03/13, 00:24:01, 2.669400, -97.257467, , , 246.0, 13.60, 236.8, 25.698, 1006.93, 32.1, 86.026, 236.6, , , , 33.6727, 26.5886, 1536.7301, 52.8858, 25.8395, 26.5886, 69.2, 2.9677, 1B
2009/03/13, 00:25:01, 2.667633, -97.260833, , , 239.0, 13.80, 235.6, 25.682, 1006.49, 30.1, 85.926, 234.8, , , , 33.6198, 26.5657, 1536.6201, 52.7883, 25.8134, 26.5657, 82.8, 2.9323, 1B
2009/03/13, 00:26:01, 2.665733, -97.264283, , , 243.0, 13.50, 236.2, 25.705, 1007.24, 26.3, 86.133, 236.5, , , , 33.6684, 26.5561, 1536.6399, 52.8422, 25.8395, 26.5561, 75.6, 3.2612, 1B
2009/03/13, 00:27:01, 2.664000, -97.267533, , , 242.0, 13.50, 235.5, 25.675, 1007.05, 24.1, 86.026, 235.0, , , , 33.6485, 26.5476, 1536.5991, 52.8057, 25.8117, 26.5476, 77.8, 3.3511, 1B
2009/03/13, 00:28:01, 2.662100, -97.270967, , , 240.0, 13.50, 236.1, 25.675, 1006.82, 21.7, 85.957, 236.1, , , , 33.6483, 26.5410, 1536.5853, 52.7988, 25.8066, 26.5410, 68.9, 3.3295, 1B
2009/03/13, 00:29:02, 2.660250, -97.274317, , , 243.0, 13.50, 236.9, 25.682, 1007.04, 19.1, 86.118, 236.9, , , , 33.6620, 26.5331, 1536.5799, 52.8098, 25.8098, 26.5331, 73.2, 3.0903, 1B
2009/03/13, 00:30:01, 2.658533, -97.277583, , , 247.0, 13.90, 237.2, 25.644, 1006.73, 17.8, 85.988, 235.8, , , , 33.6533, 26.5172, 1536.5422, 52.7852, 25.7905, 26.5172, 76.3, 3.3270, 1B
2009/03/13, 00:31:02, 2.656667, -97.281067, , , 241.0, 13.80, 236.5, 25.659, 1007.03, 15.5, 86.041, 235.6, , , , 33.6834, 26.4857, 1536.4929, 52.7915, 25.7756, 26.4857, 69.4, 3.4848, 1B
2009/03/13, 00:32:01, 2.654833, -97.284417, , , 242.0, 13.90, 236.2, 25.636, 1006.99, 13.6, 86.057, 236.4, , , , 33.7086, 26.4559, 1536.4507, 52.7963, 25.7809, 26.4559, 75.9, 3.5414, 1B
2009/03/13, 00:33:02, 2.653000, -97.287783, , , 242.0, 14.00, 236.7, 25.659, 1006.89, 11.7, 86.240, 236.8, , , , 33.7278, 26.4410, 1536.4366, 52.8079, 25.7941, 26.4410, 75.9, 3.2840, 1B
2009/03/13, 00:34:01, 2.651283, -97.291083, , , 241.0, 13.90, 236.9, 25.651, 1007.03, 10.7, 86.179, 237.0, , , , 33.6930, 26.4453, 1536.4046, 52.7616, 25.7845, 26.4453, 77.3, 3.1842, 1B
2009/03/13, 00:35:02, 2.649417, -97.294550, , , 243.0, 13.70, 234.9, 25.636, 1007.13, 8.4, 86.194, 235.0, , , , 33.7003, 26.4577, 1536.4460, 52.7865, 25.7943, 26.4577, 75.7, 3.5383, 1B
2009/03/13, 00:36:01, 2.647517, -97.297867, , , 242.0, 13.70, 236.3, 25.621, 1007.02, 7.6, 86.126, 236.2, , , , 33.6987, 26.4738, 1536.4733, 52.7971, 25.8078, 26.4738, 68.8, 3.2339, 1B
2009/03/13, 00:37:02, 2.645683, -97.301200, , , 241.0, 13.60, 235.2, 25.621, 1007.13, 6.4, 85.881, 235.3, , , , 33.8793, 26.4990, 1536.7324, 53.0781, 26.0236, 26.4990, 73.7, 3.6172, 1B
2009/03/13, 00:38:01, 2.643883, -97.304433, , , 244.0, 13.70, 236.2, 25.598, 1006.67, 5.9, 85.865, 235.7, , , , 33.9499, 26.5282, 1536.8644, 53.2016, 26.1363, 26.5282, 66.9, 3.5233, 1B
2009/03/13, 00:39:02, 2.641983, -97.307917, , , 241.0, 13.90, 235.9, 25.636, 1007.22, 4.9, 86.171, 235.4, , , , 33.9695, 26.5535, 1536.9546, 53.2597, 26.1938, 26.5535, 74.7, 3.7406, 1B
2009/03/13, 00:40:01, 2.640133, -97.311250, , , 238.0, 13.50, 235.9, 25.636, 1007.05, 4.3, 85.904, 235.7, , , , 33.9327, 26.5764, 1536.9622, 53.2319, 26.1615, 26.5764, 70.8, 3.6274, 1B
2009/03/13, 00:41:01, 2.638317, -97.314467, , , 239.0, 13.70, 237.0, 25.636, 1007.00, 3.7, 85.904, 237.3, , , , 33.9632, 26.5978, 1537.0416, 53.2926, 26.2229, 26.5978, 69.1, 3.6951, 1B
2009/03/13, 00:42:01, 2.636383, -97.317950, , , 241.0, 14.00, 236.5, 25.628, 1006.80, 3.1, 85.781, 236.0, , , , 33.9976, 26.6185, 1537.1267, 53.3621, 26.2858, 26.6185, 68.0, 3.9040, 1B
2009/03/13, 00:43:02, 2.634583, -97.321183, , , 244.0, 13.50, 235.4, 25.628, 1006.95, 2.8, 85.796, 235.2, , , , 33.9920, 26.6230, 1537.1390, 53.3624, 26.3134, 26.6230, 79.4, 3.9701, 1B
2009/03/13, 00:44:02, 2.632667, -97.324500, , , 238.0, 13.70, 235.7, 25.628, 1007.15, 2.3, 85.781, 235.7, , , , 33.8572, 26.6128, 1536.9719, 53.1637, 26.1230, 26.6128, 71.0, 4.0458, 1B
2009/03/13, 00:45:01, 2.630767, -97.327800, , , 238.0, 13.60, 236.2, 25.636, 1006.98, 2.1, 86.003, 235.7, , , , 33.8428, 26.5968, 1536.9275, 53.1307, 26.0727, 26.5968, 69.2, 3.9359, 1B
2009/03/13, 00:46:02, 2.628883, -97.331100, , , 238.0, 13.70, 235.5, 25.659, 1007.18, 1.7, 86.263, 235.3, , , , 33.7454, 26.5742, 1536.7638, 52.9682, 25.9434, 26.5742, 64.0, 3.7626, 1B
2009/03/13, 00:47:01, 2.627033, -97.334433, , , 239.0, 13.80, 235.6, 25.659, 1007.29, 1.4, 86.263, 236.3, , , , 33.8482, 26.5567, 1536.8390, 53.0965, 25.9808, 26.5567, 77.9, 3.8170, 1B
2009/03/13, 00:48:02, 2.625133, -97.337850, , , 242.0, 13.80, 236.3, 25.651, 1006.97, 1.2, 86.294, 235.7, , , , 33.8647, 26.5417, 1536.8157, 53.1014, 26.0310, 26.5417, 78.6, 4.0037, 1B
2009/03/13, 00:49:02, 2.623267, -97.341150, , , 243.0, 13.70, 236.2, 25.667, 1007.06, 1.0, 86.210, 235.6, , , , 33.8304, 26.5300, 1536.7521, 53.0417, 25.9934, 26.5300, 78.5, 4.2140, 1B
2009/03/13, 00:50:01, 2.621467, -97.344350, , , 241.0, 13.80, 236.0, 25.651, 1007.28, 0.7, 86.034, 235.4, , , , 33.7970, 26.5279, 1536.7117, 52.9930, 25.9454, 26.5279, 71.7, 3.7625, 1B
2009/03/13, 00:51:01, 2.619533, -97.347767, , , 241.0, 13.60, 235.5, 25.628, 1007.19, 0.5, 85.842, 235.5, , , , 33.8034, 26.5197, 1536.7062, 52.9964, 25.9469, 26.5197, 72.7, 3.8140, 1B
2009/03/13, 00:52:02, 2.617600, -97.351017, , , 241.0, 13.60, 235.1, 25.644, 1007.24, 0.5, 85.727, 235.3, , , , 33.7831, 26.5076, 1536.6499, 52.9528, 25.9330, 26.5076, 75.7, 3.9753, 1B
2009/03/13, 00:53:02, 2.615700, -97.354300, , , 243.0, 13.60, 236.4, 25.636, 1007.11, 0.2, 85.704, 236.0, , , , 33.7675, 26.4933, 1536.6001, 52.9165, 25.9139, 26.4933, 72.2, 3.5440, 1B
2009/03/13, 00:54:02, 2.613833, -97.357583, , , 240.0, 13.80, 236.0, 25.644, 1006.88, 0.1, 85.590, 235.1, , , , 33.7883, 26.4858, 1536.6049, 52.9379, 25.9095, 26.4858, 63.4, 3.6830, 1B
2009/03/13, 00:55:01, 2.611950, -97.360900, , , 239.0, 13.70, 236.4, 25.644, 1007.28, 0.1, 85.658, 236.0, , , , 33.8238, 26.4943, 1536.6571, 52.9936, 25.9542, 26.4943, 72.4, 3.8837, 1B
2009/03/13, 00:56:01, 2.610067, -97.364233, , , 238.0, 13.60, 235.5, 25.659, 1007.11, 0.1, 85.727, 235.2, , , , 33.7623, 26.5059, 1536.6194, 52.9202, 25.9271, 26.5059, 71.5, 3.7942, 1B
2009/03/13, 00:57:02, 2.608150, -97.367500, , , 242.0, 13.30, 236.6, 25.675, 1007.10, 0.1, 86.057, 236.1, , , , 33.7347, 26.5039, 1536.5898, 52.8816, 25.8589, 26.5039, 74.2, 3.2012, 1B
2009/03/13, 00:58:02, 2.606233, -97.370767, , , 242.0, 13.60, 236.2, 25.682, 1007.29, 0.1, 86.034, 236.8, , , , 33.7702, 26.4768, 1536.5648, 52.9034, 25.8786, 26.4768, 68.9, 3.4449, 1B
2009/03/13, 00:59:01, 2.604450, -97.373933, , , 239.0, 13.40, 236.0, 25.675, 1007.18, 0.1, 86.011, 235.3, , , , 33.7567, 26.4520, 1536.4929, 52.8593, 25.8379, 26.4520, 60.5, 3.1135, 1B
2009/03/13, 01:00:02, 2.602583, -97.377150, , , 242.0, 13.90, 235.6, 25.667, 1007.37, 0.0, 85.980, 234.9, , , , 33.8374, 26.4319, 1536.5323, 52.9512, 25.8999, 26.4319, 71.6, 3.8137, 1B
2009/03/13, 01:01:02, 2.600717, -97.380383, , , 244.0, 13.50, 236.7, 25.675, 1007.25, 0.0, 86.072, 236.7, , , , 33.8344, 26.4157, 1536.4915, 52.9305, 25.8895, 26.4157, 82.0, 3.7260, 1B
2009/03/13, 01:02:02, 2.598867, -97.383667, , , 242.0, 13.40, 236.5, 25.682, 1007.05, 0.0, 86.309, 236.2, , , , 33.8953, 26.4109, 1536.5453, 53.0103, 25.9428, 26.4109, 77.4, 3.3734, 1B
2009/03/13, 01:03:02, 2.596900, -97.387033, , , 242.0, 13.70, 235.7, 25.682, 1007.28, 0.1, 86.355, 236.1, , , , 33.8847, 26.4124, 1536.5375, 52.9971, 25.9178, 26.4124, 77.2, 3.5321, 1B
2009/03/13, 01:04:02, 2.595033, -97.390317, , , 241.0, 13.40, 236.9, 25.690, 1007.13, 0.0, 86.547, 237.0, , , , 33.8538, 26.4108, 1536.5008, 52.9525, 25.8656, 26.4108, 74.3, 3.2964, 1B
2009/03/13, 01:05:01, 2.593150, -97.393567, , , 240.0, 13.30, 235.6, 25.690, 1006.85, 0.1, 86.547, 235.2, , , , 33.8675, 26.4069, 1536.5096, 52.9690, 25.8816, 26.4069, 72.0, 2.7543, 1B
2009/03/13, 01:06:01, 2.591250, -97.396833, , , 240.0, 13.70, 235.9, 25.682, 1007.31, 0.1, 86.394, 236.5, , , , 33.8461, 26.4053, 1536.4812, 52.9367, 25.8473, 26.4053, 71.4, 2.9007, 1B
2009/03/13, 01:07:01, 2.589417, -97.399983, , , 241.0, 13.60, 236.7, 25.667, 1007.28, 0.1, 86.156, 237.5, , , , 33.8249, 26.4069, 1536.4558, 52.9061, 25.8164, 26.4069, 70.8, 2.9977, 1B
2009/03/13, 01:08:01, 2.587567, -97.403233, , , 238.0, 13.50, 235.8, 25.675, 1007.18, 0.1, 86.080, 235.7, , , , 33.8213, 26.4162, 1536.4743, 52.9109, 25.8182, 26.4162, 61.3, 2.5809, 1B
2009/03/13, 01:09:01, 2.585750, -97.406500, , , 241.0, 13.40, 235.7, 25.675, 1007.46, 0.1, 86.072, 236.9, , , , 33.8151, 26.4166, 1536.4749, 52.9053, 25.8113, 26.4166, 73.7, 2.8063, 1B
2009/03/13, 01:10:01, 2.583800, -97.409817, , , 240.0, 13.30, 234.1, 25.659, 1007.39, 0.1, 85.727, 233.8, , , , 33.8031, 26.4163, 1536.4595, 52.8876, 25.7900, 26.4163, 77.3, 3.0411, 1B
2009/03/13, 01:11:02, 2.581917, -97.413017, , , 241.0, 13.50, 237.0, 25.705, 1007.31, 0.1, 85.812, 236.9, , , , 33.8059, 26.4132, 1536.4553, 52.8883, 25.7908, 26.4132, 73.4, 3.2392, 1B
2009/03/13, 01:12:02, 2.580050, -97.416267, , , 245.0, 13.40, 235.9, 25.698, 1007.17, 0.1, 85.873, 235.1, , , , 33.7929, 26.4234, 1536.4651, 52.8806, 25.7864, 26.4234, 81.5, 3.0018, 1B
2009/03/13, 01:13:01, 2.578250, -97.419400, , , 240.0, 13.30, 237.0, 25.698, 1007.59, 0.1, 85.804, 236.0, , , , 33.7761, 26.4475, 1536.4925, 52.8771, 25.7820, 26.4475, 72.7, 2.9453, 1B
2009/03/13, 01:14:02, 2.576433, -97.422650, , , 243.0, 13.30, 236.9, 25.682, 1007.68, 0.1, 85.697, 236.1, , , , 33.8095, 26.4753, 1536.6032, 52.9567, 25.8433, 26.4753, 77.4, 3.1648, 1B
2009/03/13, 01:15:02, 2.574617, -97.425933, , , 241.0, 13.60, 235.2, 25.690, 1007.39, 0.2, 85.613, 236.2, , , , 33.7644, 26.4928, 1536.5957, 52.9116, 25.8117, 26.4928, 70.8, 3.1878, 1B
2009/03/13, 01:16:02, 2.572750, -97.429167, , , 242.0, 13.40, 235.2, 25.721, 1007.41, 0.1, 85.666, 235.7, , , , 33.7552, 26.5020, 1536.6072, 52.9082, 25.8057, 26.5020, 80.5, 3.2919, 1B
2009/03/13, 01:17:01, 2.570917, -97.432433, , , 243.0, 13.40, 236.2, 25.736, 1007.58, 0.1, 85.796, 235.4, , , , 33.7636, 26.5030, 1536.6178, 52.9207, 25.8157, 26.5030, 79.7, 3.3784, 1B
2009/03/13, 01:18:01, 2.569000, -97.435800, , , 238.0, 13.30, 236.7, 25.729, 1007.15, 0.3, 85.704, 236.3, , , , 33.8176, 26.5089, 1536.6896, 53.0022, 25.8523, 26.5089, 67.6, 2.7401, 1B
2009/03/13, 01:19:02, 2.567200, -97.439050, , , 238.0, 13.30, 235.5, 25.752, 1007.50, 0.5, 85.459, 236.0, , , , 33.8368, 26.5096, 1536.7117, 53.0298, 25.8908, 26.5096, 71.3, 2.7394, 1B
2009/03/13, 01:20:02, 2.565383, -97.442317, , , 243.0, 13.50, 236.2, 25.729, 1007.08, 0.4, 85.306, 235.7, , , , 33.8505, 26.5041, 1536.7136, 53.0432, 25.9125, 26.5041, 78.7, 3.0478, 1B
2009/03/13, 01:21:02, 2.563600, -97.445450, , , 235.0, 13.40, 236.3, 25.721, 1007.58, 0.5, 85.031, 234.9, , , , 33.8375, 26.5005, 1536.6914, 53.0214, 25.8830, 26.5005, 49.2, 2.6825, 1B
2009/03/13, 01:22:02, 2.561700, -97.448783, , , 244.0, 13.40, 235.8, 25.736, 1007.22, 0.5, 84.862, 235.4, , , , 33.8302, 26.4966, 1536.6746, 53.0072, 25.8606, 26.4966, 69.3, 2.7079, 1B
2009/03/13, 01:23:02, 2.559900, -97.452017, , , 241.0, 13.30, 236.3, 25.759, 1007.60, 0.5, 84.885, 236.9, , , , 33.8654, 26.4948, 1536.7079, 53.0545, 25.9017, 26.4948, 65.7, 2.6144, 1B
2009/03/13, 01:24:02, 2.558067, -97.455250, , , 240.0, 13.10, 235.5, 25.613, 1007.59, 0.5, 84.893, 235.3, , , , 33.8642, 26.4983, 1536.7147, 53.0564, 25.9154, 26.4983, 61.7, 2.5030, 1B
2009/03/13, 01:25:02, 2.556267, -97.458467, , , 243.0, 13.40, 236.2, 25.628, 1007.41, 0.5, 84.609, 235.8, , , , 33.8755, 26.5004, 1536.7316, 53.0743, 25.9290, 26.5004, 67.9, 2.9770, 1B
2009/03/13, 01:26:01, 2.554517, -97.461683, , , 244.0, 13.00, 235.8, 25.644, 1007.77, 0.5, 84.472, 235.9, , , , 33.9095, 26.4981, 1536.7625, 53.1193, 25.9739, 26.4981, 75.3, 2.9800, 1B
2009/03/13, 01:27:02, 2.552750, -97.464783, , , 239.0, 13.20, 235.8, 25.667, 1007.75, 0.5, 84.096, 235.1, , , , 33.9096, 26.5078, 1536.7851, 53.1294, 25.9858, 26.5078, 65.6, 3.1663, 1B
2009/03/13, 01:28:01, 2.550950, -97.468000, , , 240.0, 13.20, 236.7, 25.628, 1007.73, 0.5, 84.441, 236.3, , , , 33.8962, 26.5218, 1536.8032, 53.1251, 25.9861, 26.5218, 68.8, 3.2514, 1B
2009/03/13, 01:29:02, 2.549200, -97.471233, , , 243.0, 13.20, 236.8, 25.790, 1007.80, 0.5, 84.740, 236.7, , , , 33.9234, 26.5255, 1536.8407, 53.1667, 26.0408, 26.5255, 84.0, 2.7883, 1B
2009/03/13, 01:30:02, 2.547383, -97.474450, , , 242.0, 13.40, 235.8, 25.806, 1007.45, 0.5, 84.977, 236.3, , , , 33.9404, 26.5223, 1536.8515, 53.1871, 26.0063, 26.5223, 92.1, 2.5088, 1B
2009/03/13, 01:31:01, 2.545617, -97.477683, , , 240.0, 13.20, 236.2, 25.806, 1007.66, 0.7, 85.077, 236.0, , , , 33.8911, 26.5214, 1536.7957, 53.1170, 25.9886, 26.5214, 101.1, 2.6982, 1B
2009/03/13, 01:32:01, 2.543817, -97.480917, , , 243.0, 13.30, 236.3, 25.790, 1007.44, 1.0, 85.122, 235.5, , , , 33.8796, 26.5204, 1536.7814, 53.1000, 25.9652, 26.5204, 80.4, 2.2306, 1B
2009/03/13, 01:33:02, 2.542017, -97.484150, , , 241.0, 13.60, 236.6, 25.782, 1007.69, 0.9, 85.092, 236.2, , , , 33.9373, 26.5277, 1536.8606, 53.1884, 26.0416, 26.5277, 83.8, 2.7047, 1B
2009/03/13, 01:34:01, 2.540150, -97.487517, , , 240.0, 13.50, 236.0, 25.782, 1007.91, 0.8, 85.306, 236.8, , , , 33.9213, 26.5550, 1536.8945, 53.1886, 26.0229, 26.5550, 78.1, 2.4291, 1B
2009/03/13, 01:35:01, 2.538367, -97.490783, , , 241.0, 13.40, 235.5, 25.782, 1007.65, 0.6, 85.329, 235.4, , , , 33.8595, 26.5796, 1536.8977, 53.1329, 25.9791, 26.5796, 85.4, 2.3436, 1B
2009/03/13, 01:36:02, 2.536517, -97.494017, , , 240.0, 13.60, 235.8, 25.759, 1007.73, 0.5, 85.436, 235.5, , , , 33.8642, 26.5864, 1536.9184, 53.1465, 25.9719, 26.5864, 79.2, 2.4714, 1B
2009/03/13, 01:37:02, 2.534700, -97.497250, , , 242.0, 13.50, 235.9, 25.752, 1007.62, 0.5, 85.329, 236.5, , , , 34.0261, 26.5874, 1537.0931, 53.3735, 26.1997, 26.5874, 85.0, 2.5469, 1B
2009/03/13, 01:38:02, 2.533000, -97.500400, , , 239.0, 13.30, 237.6, 25.744, 1007.54, 0.5, 85.567, 235.9, , , , 34.0023, 26.5932, 1537.0812, 53.3462, 26.2111, 26.5932, 68.2, 2.2382, 1B
2009/03/13, 01:39:01, 2.531167, -97.503733, , , 240.0, 13.10, 234.2, 25.744, 1007.74, 0.3, 85.567, 234.5, , , , 33.9456, 26.6035, 1537.0379, 53.2746, 26.0913, 26.6035, 87.6, 2.5481, 1B
2009/03/13, 01:40:02, 2.529433, -97.506833, , , 240.0, 13.20, 235.8, 25.729, 1007.80, 0.1, 85.521, 234.6, , , , 33.8597, 26.6261, 1537.0053, 53.1808, 25.9955, 26.6261, 69.6, 2.5043, 1B
2009/03/13, 01:41:01, 2.527667, -97.510067, , , 243.0, 13.30, 236.2, 25.729, 1007.89, 0.1, 85.521, 235.9, , , , 33.7734, 26.6463, 1536.9556, 53.0789, 25.9384, 26.6463, 67.7, 2.6633, 1B
2009/03/13, 01:42:01, 2.525867, -97.513300, , , 242.0, 13.00, 236.8, 25.721, 1007.75, 0.1, 85.475, 236.5, , , , 33.7393, 26.6478, 1536.9286, 53.0353, 25.9173, 26.6478, 67.7, 2.6012, 1B
2009/03/13, 01:43:01, 2.524133, -97.516567, , , 239.0, 13.20, 236.2, 25.729, 1007.76, 0.1, 85.421, 236.1, , , , 33.7796, 26.6289, 1536.9265, 53.0718, 25.9317, 26.6289, 62.4, 2.8090, 1B
2009/03/13, 01:44:02, 2.522317, -97.519917, , , 242.0, 13.30, 235.1, 25.721, 1007.85, 0.1, 85.544, 234.7, , , , 33.7853, 26.6039, 1536.8749, 53.0542, 25.8919, 26.6039, 70.1, 2.9944, 1B
2009/03/13, 01:45:02, 2.520500, -97.523183, , , 245.0, 13.30, 236.0, 25.713, 1007.69, 0.1, 85.314, 235.8, , , , 33.8041, 26.5907, 1536.8644, 53.0669, 25.8997, 26.5907, 74.7, 2.8057, 1B
2009/03/13, 01:46:01, 2.518783, -97.526317, , , 240.0, 13.10, 234.8, 25.721, 1007.80, 0.1, 85.375, 235.1, , , , 33.7959, 26.5808, 1536.8353, 53.0465, 25.8877, 26.5808, 75.2, 3.0352, 1B
2009/03/13, 01:47:01, 2.516917, -97.529683, , , 243.0, 13.70, 236.1, 25.721, 1007.75, 0.1, 85.375, 235.8, , , , 33.8014, 26.5691, 1536.8158, 53.0449, 25.8638, 26.5691, 72.0, 2.9699, 1B
2009/03/13, 01:48:01, 2.515200, -97.532833, , , 241.0, 13.40, 234.8, 25.729, 1007.76, 0.1, 85.459, 234.8, , , , 33.8388, 26.5657, 1536.8436, 53.0898, 25.8853, 26.5657, 77.8, 3.0886, 1B
2009/03/13, 01:49:01, 2.513367, -97.536083, , , 243.0, 13.70, 236.9, 25.729, 1008.06, 0.1, 85.559, 236.3, , , , 33.7912, 26.5681, 1536.7950, 53.0243, 25.8538, 26.5681, 69.5, 2.8939, 1B
2009/03/13, 01:50:01, 2.511600, -97.539383, , , 242.0, 13.80, 237.0, 25.744, 1007.97, 0.1, 85.865, 236.6, , , , 33.8189, 26.5769, 1536.8483, 53.0735, 25.9009, 26.5769, 67.3, 3.4581, 1B
2009/03/13, 01:51:01, 2.509850, -97.542800, , , 240.0, 13.60, 236.2, 25.729, 1007.93, 0.1, 85.873, 235.3, , , , 33.8427, 26.5842, 1536.8905, 53.1142, 25.9232, 26.5842, 69.5, 3.5464, 1B
2009/03/13, 01:52:01, 2.508083, -97.546100, , , 242.0, 13.60, 236.3, 25.582, 1007.76, 0.1, 85.712, 236.0, , , , 33.8235, 26.5862, 1536.8747, 53.0894, 25.8998, 26.5862, 71.3, 3.5016, 1B
2009/03/13, 01:53:01, 2.506333, -97.549417, , , 243.0, 13.40, 236.5, 25.582, 1007.87, 0.1, 85.712, 235.8, , , , 33.8218, 26.5775, 1536.8578, 53.0804, 25.8961, 26.5775, 76.6, 3.2967, 1B
2009/03/13, 01:54:01, 2.504617, -97.552583, , , 242.0, 13.50, 235.5, 25.675, 1008.03, 0.1, 85.789, 235.9, , , , 33.8375, 26.5584, 1536.8332, 53.0840, 25.9207, 26.5584, 74.7, 3.4388, 1B
2009/03/13, 01:55:01, 2.502800, -97.555867, , , 241.0, 13.70, 236.6, 25.667, 1007.96, 0.1, 85.613, 236.5, , , , 33.8008, 26.5403, 1536.7497, 53.0132, 25.9514, 26.5403, 62.0, 3.6092, 1B
2009/03/13, 01:56:01, 2.500933, -97.559300, , , 240.0, 13.70, 236.7, 25.644, 1007.82, 0.1, 85.582, 235.4, , , , 33.8107, 26.5275, 1536.7265, 53.0121, 25.9742, 26.5275, 70.8, 3.4541, 1B
2009/03/13, 01:57:01, 2.499117, -97.562617, , , 240.0, 13.60, 236.8, 25.705, 1007.98, 0.5, 85.505, 237.1, , , , 33.7189, 26.5153, 1536.5993, 52.8711, 25.9886, 26.5153, 55.5, 3.0861, 1B
2009/03/13, 01:58:02, 2.497367, -97.565983, , , 242.0, 13.70, 236.7, 25.713, 1007.65, 0.5, 85.352, 237.5, , , , 33.7758, 26.5010, 1536.6268, 52.9359, 26.0043, 26.5010, 58.6, 3.3097, 1B
2009/03/13, 01:59:02, 2.495717, -97.569217, , , 241.0, 13.60, 235.0, 25.698, 1007.81, 0.5, 85.199, 235.1, , , , 33.7644, 26.4982, 1536.6082, 52.9171, 25.9769, 26.4982, 57.4, 3.3611, 1B
2009/03/13, 02:00:02, 2.493817, -97.572583, , , 243.0, 13.60, 234.5, 25.713, 1008.23, 0.5, 85.038, 234.8, , , , 33.7671, 26.5081, 1536.6340, 52.9310, 25.9656, 26.5081, 66.2, 3.1346, 1B
2009/03/13, 02:01:02, 2.491983, -97.575867, , , 241.0, 13.50, 236.9, 25.729, 1008.10, 0.5, 85.368, 236.4, , , , 33.7711, 26.5300, 1536.6889, 52.9589, 26.0246, 26.5300, 61.5, 3.0771, 1B
2009/03/13, 02:02:02, 2.490233, -97.579050, , , 240.0, 13.70, 236.4, 25.729, 1008.03, 0.5, 85.260, 236.7, , , , 33.8005, 26.5500, 1536.7665, 53.0204, 25.9853, 26.5500, 65.1, 3.2619, 1B
2009/03/13, 02:03:01, 2.488467, -97.582400, , , 244.0, 13.60, 235.2, 25.744, 1007.84, 0.8, 85.421, 235.6, , , , 33.8015, 26.5582, 1536.7888, 53.0311, 25.9941, 26.5582, 67.8, 3.2287, 1B
2009/03/13, 02:04:02, 2.486617, -97.585850, , , 246.0, 13.30, 234.9, 25.752, 1007.94, 0.7, 85.337, 235.2, , , , 33.7735, 26.5533, 1536.7454, 52.9860, 26.0384, 26.5533, 71.4, 2.7053, 1B
2009/03/13, 02:05:02, 2.484800, -97.589133, , , 236.0, 13.50, 234.5, 25.752, 1007.92, 0.7, 85.413, 234.0, , , , 33.8569, 26.5440, 1536.8127, 53.0930, 25.9802, 26.5440, 50.2, 3.1710, 1B
2009/03/13, 02:06:02, 2.482967, -97.592400, , , 238.0, 13.20, 235.3, 25.736, 1008.02, 0.7, 85.283, 235.6, , , , 33.8636, 26.5417, 1536.8145, 53.1000, 25.9859, 26.5417, 64.9, 3.3607, 1B